DIRECTV 5 (TEMPO 1) (27426 NORAD) Tracking and Keplerian Element Data

This shows tracking and keplerian element data for the satellite.

Feedback or suggestion? Click here.




ElementValue
Catalog27426
NameDIRECTV 5 (TEMPO 1)
Epoch Orbit5934
Epoch Day198.48583361
Epoch Year2018
RAAN76.1171
Inclination0.0137
Eccentricity0.0003305
Argument of Perigee46.1491
Mean Anonmoly237.7477
Mean Motion1.00271664
Decay Rate-7.6E-07
L11 27426U 02023A 18198.48583361 -.00000076 00000-0 00000-0 0 9997
L22 27426 0.0137 76.1171 0003305 46.1491 237.7477 1.00271664 59348

Live tracking and technical data element details for DIRECTV 5 (TEMPO 1) (NORAD 27426). DIRECTV 5 (TEMPO 1) can be tracked NOW for your location showing map with azimuth and elevation plus other details from your city location.

Track the satellite on the map from your city or location and see movement details for azimuth, elevation, latitude, longitude, range, height, and movement on the map or in text.







IsCatalogInMostPopularTable: catalog: 27426, numindb: 37
Update: records affected: 1



GetName: 27426 DIRECTV 5 (TEMPO 1)

Hit Count: updated at: Sat, 21 Jul 2018 07:43:27 GMT